Location: Asheville, NC
(35.6000°N, 82.5500°W)
Time: 04:51:24
(UTC-04:00)

Vanguard 2 Rocket - Pass Details

Date: 18 February 2018
Orbit: 554 x 3327 km, 32.9° (Epoch: 20 May)

Event Time Altitude Azimuth Distance (km) Brightness Sun altitude
Rises 22:36:09 0° 227° (SW) 4,721 10.7 -52.2°
Enters shadow 22:37:57 - 224° (SW) 4,261 10.4 -52.5°
Reaches altitude 10° 22:38:51 10° 222° (SW) 4,043 - -52.7°
Maximum altitude 22:50:06 54° 149° (SSE) 2,892 - -54.6°
Drops below altitude 10° 23:07:55 10° 80° (E) 6,171 - -57.4°
Sets 23:13:12 0° 76° (ENE) 7,302 - -58.2°
